Regional Weather Roundup
Issued by NWS Nashville, TN

Current Version | Previous Version | Text Only | Print | Product List | Glossary Off
Versions: 1 2 3 4 5 6 7 8 9 10 11 12 13 14 15 16 17 18 19 20 21 22 23 24 25 26 27 28 29 30 31 32 33 34 35 36 37 38 39 40 41 42 43 44 45 46 47 48 49 50

473
ASUS44 KOHX 261610
RWROHX
MIDDLE TENNESSEE HOURLY WEATHER ROUNDUP
NATIONAL WEATHER SERVICE NASHVILLE TN
1100 AM CDT TUE JUL 26 2016

NOTE: "FAIR" INDICATES FEW OR NO CLOUDS BELOW 12,000 FEET WITH
NO SIGNIFICANT WEATHER AND/OR OBSTRUCTIONS TO VISIBILITY.

* THESE REPORTS ARE NOT UNDER NWS QUALITY CONTROL AND MAY NOT
  REPORT WEATHER SUCH AS PRECIPITATION AND FOG.


TNZ005>011-023>034-057-059-062>066-078-080-261700
...NORTHERN MIDDLE TENNESSEE...

CITY           SKY/WX    TMP DP  RH WIND       PRES   REMARKS
CLARKSVILLE    SUNNY     88  75  65 S5        30.03S HX  97
CROSSVILLE     CLOUDY    82  72  71 W6        30.13S
NASHVILLE      MOSUNNY   91  73  55 SW3       30.04F HX  99
SMYRNA         MOSUNNY   93  74  54 VRB3      30.05S HX 102
SPARTA         SUNNY     90  75  62 VRB3      30.07S HX 100
$$
TNZ056-058-060-061-075>077-079-093>097-261700
...SOUTHERN MIDDLE TENNESSEE...

CITY           SKY/WX    TMP DP  RH WIND       PRES   REMARKS
COLUMBIA       SUNNY     91  73  55 CALM      30.03F HX 100
FAYETTEVILLE   SUNNY     88  73  62 VRB6      30.06F HX  96
MCMINNVILLE    SUNNY     86  75  70 VRB6      30.08F HX  95
SHELBYVILLE    SUNNY     90  75  62 S5        30.07S HX 100
TULLAHOMA      SUNNY     84  72  65 VRB5      30.09S
WINCHESTER     SUNNY     88  72  58 S3        30.07F HX  94
$$


...KEY TO REMARKS...
VSB - VISIBILITY IN MILES
WCI - WIND CHILL INDEX
HX  - HEAT INDEX





USA.gov is the U.S. government's official web portal to all federal, state and local government web resources and services.